Location: Grand Lay
(47.3253°N, 0.9468°E)
Time: 00:07:49
(UTC+00:00)

Cosmos 2082 Rocket - Pass Details

Date: 18 January 2026
Orbit: 831 x 853 km, 71.0° (Epoch: 16 February)

Event Time Altitude Azimuth Distance (km) Brightness Sun altitude
Exits shadow 05:53:52 18° 323° (NW) 1,961 3.7 -17.0°
Maximum altitude 05:58:02 61° 249° (WSW) 961 2.2 -16.3°
Drops below altitude 10° 06:03:37 10° 170° (S) 2,470 4.9 -15.4°
Sets 06:06:05 0° 167° (SSE) 3,404 5.7 -15.0°
